Kalispell, MT

3:21 AM MDT on March 23, 2017 (GMT -0600)
Glacier Park International

Weather History for KGPI - November, 2013

Change the Weather History Date:

Saturday, November 9, 2013

  Actual Average Record
Temperature  
Mean Temperature 34 °F 34 °F  
Max Temperature 45 °F 43 °F 60 °F (1937)
Min Temperature 22 °F 26 °F -3 °F (1986)
Degree Days  
Heating Degree Days 31 31  
Month to date heating degree days 286 267  
Since 1 July heating degree days 1352 1475  
Cooling Degree Days 0 0  
Month to date cooling degree days 0 0  
Year to date cooling degree days 264 147  
Moisture  
Dew Point 27 °F    
Average Humidity 77    
Maximum Humidity 100    
Minimum Humidity 53    
Precipitation  
Precipitation 0.00 in 0.05 in 0.86 in (1902)
Month to date precipitation 1.03 0.41  
Year to date precipitation 14.39 14.41  
Snow  
Snow 0.00 in - - ()
Month to date snowfall 7.3  
Year to date snowfall 17.4  
Since 1 July snowfall 7.3  
Snow Depth 0.00 in    
Sea Level Pressure  
Sea Level Pressure 30.21 in    
Wind  
Wind Speed 1 mph (NNW)    
Max Wind Speed 18 mph    
Max Gust Speed 32 mph    
Visibility 7 miles    
Events Fog , Rain    
T = Trace of Precipitation, MM = Missing Value Source: NWS Daily Summary

Daily Weather History Graph

Daily Weather History Graph

Search for Another Location

Airport or City:

Trip Planner

Search our weather history database for the weather conditions in past years. The results will help you decide how hot, cold, wet, or windy it might be!

Date:

Astronomy

Nov. 09, 2013 Rise Set
Actual Time 7:35 AM MST 5:05 PM MST
Civil Twilight 7:02 AM MST 5:39 PM MST
Nautical Twilight 6:24 AM MST 6:16 PM MST
Astronomical Twilight 5:47 AM MST 6:53 PM MST
Moon 1:09 PM MST (11/9) 11:47 PM MST (11/9)
Length of Visible Light 10h 36m
Length of Day
9h 29m
Waxing Crescent, 45% of the Moon is Illuminated
Nov 9
Waxing Crescent
Nov 9
First Quarter
Nov 17
Full
Nov 25
Last Quarter
Dec 2
New

Hourly Weather History & Observations

Time (MST) Temp. Windchill Dew Point Humidity Pressure Visibility Wind Dir Wind Speed Gust Speed Precip Events Conditions
12:55 AM 28.0 °F - 26.1 °F 92% 30.18 in 10.0 mi Calm Calm - N/A   Scattered Clouds
1:55 AM 30.0 °F - 28.0 °F 92% 30.19 in 10.0 mi Calm Calm - N/A   Clear
2:55 AM 25.0 °F - 24.1 °F 96% 30.21 in 8.0 mi Calm Calm - N/A   Clear
3:35 AM 21.2 °F - 21.2 °F 100% 30.15 in 2.5 mi Calm Calm - N/A   Partly Cloudy
3:43 AM 24.8 °F - 23.0 °F 93% 30.15 in 1.2 mi Calm Calm - N/A   Mostly Cloudy
3:55 AM 25.0 °F - 23.0 °F 92% 30.22 in 0.8 mi Calm Calm - N/A   Mist
4:11 AM 24.8 °F 20.5 °F 24.8 °F 100% 30.16 in 1.8 mi NW 3.5 mph - N/A   Overcast
4:16 AM 26.6 °F 22.6 °F 24.8 °F 93% 30.16 in 0.8 mi NW 3.5 mph - N/A   Overcast
4:30 AM 24.8 °F 20.5 °F 24.8 °F 100% 30.16 in 0.2 mi NNE 3.5 mph - N/A Fog Light Freezing Fog
4:41 AM 24.8 °F 19.1 °F 24.8 °F 100% 30.16 in 0.5 mi NE 4.6 mph - N/A Fog Light Freezing Fog
4:48 AM 24.8 °F - 23.0 °F 93% 30.16 in 1.5 mi Calm Calm - N/A   Overcast
4:51 AM 24.8 °F - 23.0 °F 93% 30.16 in 3.0 mi Calm Calm - N/A   Overcast
4:55 AM 24.1 °F - 23.0 °F 96% 30.25 in 5.0 mi Calm Calm - N/A   Overcast
5:01 AM 24.8 °F - 23.0 °F 93% 30.17 in 1.8 mi Calm Calm - N/A   Mostly Cloudy
5:11 AM 24.8 °F - 21.2 °F 86% 30.17 in 1.2 mi Calm Calm - N/A   Overcast
5:25 AM 26.6 °F - 24.8 °F 93% 30.17 in 0.8 mi Calm Calm - N/A   Overcast
5:36 AM 24.8 °F - 24.8 °F 100% 30.17 in 1.8 mi Calm Calm - N/A   Overcast
5:39 AM 26.6 °F - 24.8 °F 93% 30.17 in 3.0 mi Calm Calm - N/A   Overcast
5:55 AM 27.0 °F - 26.1 °F 96% 30.25 in 10.0 mi Calm Calm - N/A   Overcast
6:55 AM 27.0 °F 23.0 °F 26.1 °F 96% 30.25 in 10.0 mi SW 3.5 mph - N/A   Overcast
7:55 AM 28.0 °F - 27.0 °F 96% 30.27 in 10.0 mi Calm Calm - N/A   Overcast
8:55 AM 28.9 °F - 28.0 °F 96% 30.28 in 10.0 mi Calm Calm - N/A   Overcast
9:55 AM 30.9 °F - 30.0 °F 96% 30.28 in 10.0 mi Calm Calm - N/A   Partly Cloudy
10:55 AM 37.0 °F - 32.0 °F 82% 30.27 in 10.0 mi Calm Calm - N/A   Clear
11:55 AM 39.0 °F - 33.1 °F 79% 30.27 in 10.0 mi Calm Calm - N/A   Clear
12:55 PM 42.1 °F 40.2 °F 33.1 °F 70% 30.25 in 10.0 mi Variable 3.5 mph - N/A   Clear
1:55 PM 45.0 °F 41.8 °F 30.0 °F 56% 30.22 in 10.0 mi South 5.8 mph - N/A   Clear
2:55 PM 44.1 °F 41.5 °F 28.0 °F 53% 30.22 in 10.0 mi SSE 4.6 mph - N/A   Clear
3:55 PM 43.0 °F 41.3 °F 28.0 °F 56% 30.22 in 10.0 mi South 3.5 mph - N/A   Clear
4:55 PM 39.9 °F - 27.0 °F 60% 30.23 in 10.0 mi Calm Calm - N/A   Partly Cloudy
5:55 PM 33.1 °F - 28.9 °F 85% 30.23 in 10.0 mi Calm Calm - N/A   Clear
6:55 PM 32.0 °F - 28.9 °F 88% 30.25 in 10.0 mi Calm Calm - N/A   Mostly Cloudy
7:55 PM 32.0 °F - 28.9 °F 88% 30.24 in 10.0 mi Calm Calm - N/A   Mostly Cloudy
8:55 PM 32.0 °F - 28.9 °F 88% 30.23 in 10.0 mi Calm Calm - N/A   Overcast
9:55 PM 33.1 °F - 30.0 °F 89% 30.23 in 10.0 mi Calm Calm - N/A   Overcast
10:55 PM 34.0 °F 28.8 °F 30.9 °F 89% 30.21 in 10.0 mi North 5.8 mph - N/A   Overcast
11:55 PM 35.1 °F - 32.0 °F 89% 30.22 in 10.0 mi North - - 0.00 in Rain Light Rain